SCP
0 0 0 0 0 0 0 0 0 0 0 0 0 0 0 0 0 0 0 0 0 0
0 0 0 0 0 0 0 0 0 0 0 0 0 0 0 0 0 0 0 0 0 0
0 0 0 0 0 0 0 0 0 0 0 0 0 0 0 0 0 0 0 0 0 0
0 0 0 0 0 0 0 0 0 0 0 0 0 0 0 0 0 0 0 0 0 0
0 0 0 0 0 0 0 0 0 0 0 0 0 0 0 0 0 0 0 0 0 0
0 0 0 0 0 0 0 0 0 0 0 0 0 0 0 0 0 0 0 0 0 0
0 0 0 0 0 0 0 0 0 0 0 0 0 0 0 0 0 0 0 0 0 0
0 0 0 0 0 0 0 0 0 0 0 0 0 0 0 0 0 0 0 0 0 0
0 0 0 0 0 0 0 0 0 0 0 0 0 0 0 0 0 0 0 0 0 0
0 0 0 0 0 0 0 0 0 0 0 0 0 0 0 0 0 0 0 0 0 0
0 0 0 0 0 0 0 0 0 0 0 0 0 0 0 0 0 0 0 0 0 0
0 0 0 0 0 0 0 0 0 0 0 0 0 0 0 0 0 0 0 0 0 0
0 0 0 0 0 0 0 0 0 0 0 0 0 0 0 0 0 0 0 0 0 0
0 0 0 0 0 0 0 0 0 0 0 0 0 0 0 0 0 0 0 0 0 0
Wind_Speed_500mb
50 43 37 34 33 32 34 32 31 31 29 25 28 37 47 53 59 67 74 83 67 67
53 46 38 36 34 33 33 32 30 29 25 24 31 42 49 57 64 72 79 79 68 69
54 48 42 38 33 33 32 30 29 27 23 25 35 44 52 60 67 75 80 78 71 72
57 51 44 39 33 32 31 28 26 24 22 28 38 45 54 62 69 78 84 79 73 69
57 52 46 37 33 31 29 27 26 22 22 30 38 46 55 64 69 78 86 76 71 70
58 53 44 37 32 30 28 26 24 21 23 30 38 46 54 62 70 76 77 72 66 64
55 48 42 36 32 29 27 25 23 21 23 29 36 46 55 62 69 73 72 67 59 59
49 46 42 36 31 29 28 26 24 22 23 27 33 43 54 62 65 70 71 64 52 52
48 46 41 36 32 30 28 26 25 24 23 24 29 39 50 59 64 69 71 65 45 48
49 46 41 37 34 30 27 27 27 24 26 24 27 36 46 54 59 63 67 62 41 38
50 46 43 38 33 32 30 29 28 27 28 24 27 32 41 49 55 59 61 57 38 31
49 46 42 39 35 33 32 31 31 30 29 25 24 30 37 44 48 54 56 56 36 30
45 44 42 37 35 33 33 33 34 33 32 27 21 27 35 41 46 50 55 56 42 27
45 42 39 38 38 36 34 35 34 35 33 28 22 24 30 36 42 48 53 55 52 37
Wind_Direction_500mb
245 253 269 288 298 300 303 304 304 307 311 317 324 324 325 328 330 328 325 326 321 304
245 253 267 283 291 294 298 299 301 304 308 314 322 323 328 331 332 329 327 328 319 310
247 252 262 276 282 287 291 293 297 300 303 316 321 326 331 333 332 328 329 328 324 324
246 251 260 271 273 280 285 286 292 291 303 317 323 330 333 335 331 329 335 337 327 321
244 248 257 263 266 274 278 282 286 286 305 317 326 332 335 334 332 335 340 335 330 327
242 247 253 252 259 268 272 275 275 285 304 319 327 332 336 334 335 342 341 338 332 337
243 246 246 245 253 260 264 266 265 280 301 317 326 333 336 337 343 344 342 340 339 340
241 239 235 240 247 253 255 258 259 272 296 313 326 335 338 342 346 345 343 343 344 347
234 231 232 237 243 247 249 253 256 269 289 307 325 337 341 345 348 347 345 342 346 354
228 225 229 233 239 243 246 249 255 269 287 305 327 340 344 347 349 347 348 343 339 346
219 221 225 230 237 240 243 244 251 264 281 300 322 339 344 350 352 349 350 346 338 333
218 221 226 231 235 237 240 242 249 260 273 293 316 334 343 350 354 351 354 355 341 331
217 222 228 230 233 238 240 241 247 257 268 282 306 329 340 351 354 354 358 359 355 340
217 222 226 229 234 238 239 242 247 251 261 275 298 319 336 350 354 356 1 1 4 4
Wind_Speed_850mb
50 43 37 34 33 32 34 32 31 31 29 25 28 37 47 53 59 67 74 83 67 67
53 46 38 36 34 33 33 32 30 29 25 24 31 42 49 57 64 72 79 79 68 69
54 48 42 38 33 33 32 30 29 27 23 25 35 44 52 60 67 75 80 78 71 72
57 51 44 39 33 32 31 28 26 24 22 28 38 45 54 62 69 78 84 79 73 69
57 52 46 37 33 31 29 27 26 22 22 30 38 46 55 64 69 78 86 76 71 70
58 53 44 37 32 30 28 26 24 21 23 30 38 46 54 62 70 76 77 72 66 64
55 48 42 36 32 29 27 25 23 21 23 29 36 46 55 62 69 73 72 67 59 59
49 46 42 36 31 29 28 26 24 22 23 27 33 43 54 62 65 70 71 64 52 52
48 46 41 36 32 30 28 26 25 24 23 24 29 39 50 59 64 69 71 65 45 48
49 46 41 37 34 30 27 27 27 24 26 24 27 36 46 54 59 63 67 62 41 38
50 46 43 38 33 32 30 29 28 27 28 24 27 32 41 49 55 59 61 57 38 31
49 46 42 39 35 33 32 31 31 30 29 25 24 30 37 44 48 54 56 56 36 30
45 44 42 37 35 33 33 33 34 33 32 27 21 27 35 41 46 50 55 56 42 27
45 42 39 38 38 36 34 35 34 35 33 28 22 24 30 36 42 48 53 55 52 37
Wind_Direction_850mb
245 253 269 288 298 300 303 304 304 307 311 317 324 324 325 328 330 328 325 326 321 304
245 253 267 283 291 294 298 299 301 304 308 314 322 323 328 331 332 329 327 328 319 310
247 252 262 276 282 287 291 293 297 300 303 316 321 326 331 333 332 328 329 328 324 324
246 251 260 271 273 280 285 286 292 291 303 317 323 330 333 335 331 329 335 337 327 321
244 248 257 263 266 274 278 282 286 286 305 317 326 332 335 334 332 335 340 335 330 327
242 247 253 252 259 268 272 275 275 285 304 319 327 332 336 334 335 342 341 338 332 337
243 246 246 245 253 260 264 266 265 280 301 317 326 333 336 337 343 344 342 340 339 340
241 239 235 240 247 253 255 258 259 272 296 313 326 335 338 342 346 345 343 343 344 347
234 231 232 237 243 247 249 253 256 269 289 307 325 337 341 345 348 347 345 342 346 354
228 225 229 233 239 243 246 249 255 269 287 305 327 340 344 347 349 347 348 343 339 346
219 221 225 230 237 240 243 244 251 264 281 300 322 339 344 350 352 349 350 346 338 333
218 221 226 231 235 237 240 242 249 260 273 293 316 334 343 350 354 351 354 355 341 331
217 222 228 230 233 238 240 241 247 257 268 282 306 329 340 351 354 354 358 359 355 340
217 222 226 229 234 238 239 242 247 251 261 275 298 319 336 350 354 356 1 1 4 4